DW5852 Weather Reports


Display with metric or nautical units.
time (UTC)temp
F
wind
direction
speed
MPH
gust
MPH
rain 1hr
in
rain 24hr
in
rain mn
in
humidity
%
barometer
mb
20260903130733 63 89 0.0 0.0 0.00 0.00 0.00 52 1034.5
20260903130233 62 89 0.0 0.0 0.00 0.00 0.00 53 1034.4
20260903125732 62 89 0.0 0.0 0.00 0.00 0.00 54 1034.4
20260903125235 61 89 0.0 0.0 0.00 0.00 0.00 53 1034.5
20260903124732 62 89 0.0 0.0 0.00 0.00 0.00 51 1034.5
20260903124232 62 89 0.0 0.0 0.00 0.00 0.00 52 1034.5
20260903123736 62 89 0.0 0.0 0.00 0.00 0.00 51 1034.6
20260903123232 63 25 0.0 0.0 0.00 0.00 0.00 52 1034.7
20260903122735 64 26 0.0 0.0 0.00 0.00 0.00 53 1034.6
20260903122235 63 192 0.0 0.0 0.00 0.00 0.00 55 1034.7
20260903121735 63 193 0.0 0.0 0.00 0.00 0.00 55 1034.6
20260903121235 63 193 0.0 0.0 0.00 0.00 0.00 53 1034.7
20260903120732 63 193 0.0 0.0 0.00 0.00 0.00 53 1034.8
20260903120235 63 193 0.0 0.0 0.00 0.00 0.00 51 1034.8
20260903115732 62 193 0.0 0.0 0.00 0.00 0.00 52 1034.8
20260903115233 62 193 0.0 0.0 0.00 0.00 0.00 49 1034.9
20260903114735 62 193 0.0 0.0 0.00 0.00 0.00 49 1034.9
20260903114232 62 193 0.0 0.0 0.00 0.00 0.00 49 1035.0
20260903113733 63 193 0.0 0.0 0.00 0.00 0.00 48 1035.0
20260903113232 63 193 0.0 0.0 0.00 0.00 0.00 47 1035.0
20260903112735 63 314 0.0 0.0 0.00 0.00 0.00 47 1035.2
20260903112235 63 316 0.0 0.0 0.00 0.00 0.00 48 1035.1
20260903111735 64 316 0.0 0.0 0.00 0.00 0.00 51 1035.2
20260903111233 64 316 0.0 0.0 0.00 0.00 0.00 51 1035.2
20260903110735 64 316 0.0 0.0 0.00 0.00 0.00 50 1035.1
20260903110235 64 266 0.0 0.0 0.00 0.00 0.00 50 1035.2
20260903105735 64 94 0.0 0.0 0.00 0.00 0.00 48 1035.2
20260903105232 64 34 0.0 3.0 0.00 0.00 0.00 48 1035.4
20260903104735 64 94 0.0 0.0 0.00 0.00 0.00 45 1035.4
20260903104233 64 316 0.0 5.0 0.00 0.00 0.00 48 1035.4
20260903103735 63 321 0.0 0.0 0.00 0.00 0.00 48 1035.5
20260903103232 63 322 0.0 0.0 0.00 0.00 0.00 47 1035.5
20260903102736 63 321 0.0 0.0 0.00 0.00 0.00 48 1035.5
20260903102235 63 79 0.0 0.0 0.00 0.00 0.00 47 1035.6
20260903101735 63 20 0.0 0.0 0.00 0.00 0.00 49 1035.6
20260903101235 64 20 0.0 0.0 0.00 0.00 0.00 52 1035.7
20260903100735 64 309 0.0 0.0 0.00 0.00 0.00 51 1035.8
20260903100235 64 309 0.0 0.0 0.00 0.00 0.00 51 1035.8
20260903095732 64 232 0.0 0.0 0.00 0.00 0.00 51 1035.7
20260903095235 64 310 0.0 0.0 0.00 0.00 0.00 50 1035.7
20260903094735 65 310 0.0 0.0 0.00 0.00 0.00 50 1036.0
20260903094232 64 335 0.0 0.0 0.00 0.00 0.00 50 1036.0
20260903093735 64 222 0.0 0.0 0.00 0.00 0.00 49 1036.1
20260903093232 65 222 0.0 0.0 0.00 0.00 0.00 48 1036.1
20260903092735 65 222 0.0 3.0 0.00 0.00 0.00 47 1036.2
20260903092235 65 245 3.0 5.0 0.00 0.00 0.00 46 1036.2
20260903091732 65 300 0.0 0.0 0.00 0.00 0.00 44 1036.2
20260903091235 65 300 0.0 2.0 0.00 0.00 0.00 43 1036.3
20260903090732 65 256 0.0 0.0 0.00 0.00 0.00 45 1036.5
20260903090235 65 352 0.0 0.0 0.00 0.00 0.00 42 1036.5
20260903085732 65 239 0.0 0.0 0.00 0.00 0.00 40 1036.6
20260903085235 64 239 0.0 0.0 0.00 0.00 0.00 41 1036.6
20260903084733 64 239 0.0 0.0 0.00 0.00 0.00 40 1036.8
20260903084235 64 239 0.0 0.0 0.00 0.00 0.00 40 1036.8
20260903083735 64 239 0.0 0.0 0.00 0.00 0.00 40 1036.8
20260903083236 64 239 0.0 0.0 0.00 0.00 0.00 40 1036.8
20260903082735 65 264 0.0 0.0 0.00 0.00 0.00 41 1036.9
20260903082235 65 296 0.0 0.0 0.00 0.00 0.00 39 1037.0
20260903081735 64 296 0.0 0.0 0.00 0.00 0.00 39 1036.9
20260903081236 64 297 0.0 0.0 0.00 0.00 0.00 40 1037.1
20260903080732 65 300 0.0 0.0 0.00 0.00 0.00 39 1037.1
20260903080232 65 0 0.0 0.0 0.00 0.00 0.00 39 1037.2
20260903075732 65 353 0.0 0.0 0.00 0.00 0.00 38 1037.2
20260903075235 66 339 0.0 0.0 0.00 0.00 0.00 37 1037.3
20260903074732 66 327 0.0 0.0 0.00 0.00 0.00 37 1037.4
20260903074235 66 327 0.0 0.0 0.00 0.00 0.00 36 1037.4
20260903073735 66 23 0.0 0.0 0.00 0.00 0.00 37 1037.4
20260903073232 65 259 0.0 0.0 0.00 0.00 0.00 37 1037.5
20260903072735 66 349 0.0 0.0 0.00 0.00 0.00 37 1037.4
20260903072232 66 35 0.0 0.0 0.00 0.00 0.00 37 1037.5
20260903071735 65 347 0.0 0.0 0.00 0.00 0.00 37 1037.4
20260903071235 65 93 0.0 0.0 0.00 0.00 0.00 37 1037.4
20260903070735 66 93 0.0 0.0 0.00 0.00 0.00 37 1037.4
20260903070232 65 0 0.0 0.0 0.00 0.00 0.00 37 1037.5
20260903065732 65 0 0.0 0.0 0.00 0.00 0.00 37 1037.5
20260903065232 66 0 0.0 0.0 0.00 0.00 0.00 36 1037.5
20260903064735 66 128 0.0 0.0 0.00 0.00 0.00 36 1037.6
20260903064232 66 139 0.0 0.0 0.00 0.00 0.00 36 1037.7
20260903063732 66 136 0.0 0.0 0.00 0.00 0.00 36 1037.7
20260903063232 66 148 0.0 5.0 0.00 0.00 0.00 36 1037.6
20260903062735 66 105 0.0 5.0 0.00 0.00 0.00 36 1037.6
20260903062235 66 104 0.0 0.0 0.00 0.00 0.00 36 1037.6
20260903061732 66 89 0.0 0.0 0.00 0.00 0.00 35 1037.6
20260903061232 67 147 0.0 0.0 0.00 0.00 0.00 35 1037.7
20260903060735 67 150 0.0 0.0 0.00 0.00 0.00 34 1037.6
20260903060232 69 276 0.0 0.0 0.00 0.00 0.00 33 1037.6
20260903055732 69 274 0.0 0.0 0.00 0.00 0.00 32 1037.6
20260903055236 69 268 0.0 0.0 0.00 0.00 0.00 32 1037.6
20260903054732 69 256 0.0 0.0 0.00 0.00 0.00 32 1037.6
20260903054232 70 269 0.0 0.0 0.00 0.00 0.00 32 1037.5
20260903053732 70 256 0.0 5.0 0.00 0.00 0.00 32 1037.5
20260903053235 70 258 5.0 9.0 0.00 0.00 0.00 32 1037.5
20260903052735 70 261 0.0 8.0 0.00 0.00 0.00 32 1037.5
20260903052232 69 271 0.0 5.0 0.00 0.00 0.00 32 1037.6
20260903051732 69 242 1.0 4.0 0.00 0.00 0.00 32 1037.5
20260903051235 69 226 0.0 5.0 0.00 0.00 0.00 32 1037.5
20260903050732 69 271 0.0 1.0 0.00 0.00 0.00 32 1037.6
20260903050232 69 256 0.0 5.0 0.00 0.00 0.00 32 1037.7
20260903045735 69 266 0.0 5.0 0.00 0.00 0.00 33 1037.7
20260903045235 69 276 0.0 6.0 0.00 0.00 0.00 33 1037.7
20260903044735 69 222 0.0 7.0 0.00 0.00 0.00 33 1037.7
20260903044235 69 229 0.0 0.0 0.00 0.00 0.00 33 1037.8
20260903043732 69 235 0.0 1.0 0.00 0.00 0.00 33 1037.8
20260903043235 69 258 0.0 0.0 0.00 0.00 0.00 33 1037.9
20260903042732 69 248 0.0 0.0 0.00 0.00 0.00 33 1037.9
20260903042235 69 239 0.0 0.0 0.00 0.00 0.00 33 1037.8
20260903041735 69 225 0.0 0.0 0.00 0.00 0.00 33 1037.8
20260903041235 69 241 0.0 0.0 0.00 0.00 0.00 33 1037.9
20260903040732 70 251 0.0 4.0 0.00 0.00 0.00 32 1037.9
20260903040232 70 235 0.0 4.0 0.00 0.00 0.00 32 1037.9
20260903035735 70 256 0.0 6.0 0.00 0.00 0.00 32 1037.8
20260903035235 70 232 0.0 3.0 0.00 0.00 0.00 31 1037.8
20260903034735 70 271 0.0 3.0 0.00 0.00 0.00 31 1037.9
20260903034235 70 239 0.0 5.0 0.00 0.00 0.00 31 1037.8
20260903033735 70 242 0.0 8.0 0.00 0.00 0.00 31 1037.8
20260903033235 70 235 0.0 0.0 0.00 0.00 0.00 31 1037.8
20260903032732 70 250 0.0 0.0 0.00 0.00 0.00 30 1037.8
20260903032235 70 217 0.0 0.0 0.00 0.00 0.00 30 1037.7
20260903031735 70 263 0.0 0.0 0.00 0.00 0.00 30 1037.7
20260903031232 70 268 0.0 0.0 0.00 0.00 0.00 30 1037.7
20260903030735 70 250 0.0 0.0 0.00 0.00 0.00 30 1037.7
20260903030232 70 250 0.0 0.0 0.00 0.00 0.00 29 1037.5
20260903025735 70 258 0.0 0.0 0.00 0.00 0.00 29 1037.5
20260903025235 71 246 0.0 0.0 0.00 0.00 0.00 29 1037.4
20260903024732 71 253 0.0 0.0 0.00 0.00 0.00 29 1037.3
20260903024232 71 243 0.0 0.0 0.00 0.00 0.00 29 1037.3
20260903023732 71 256 0.0 0.0 0.00 0.00 0.00 29 1037.2
20260903023235 71 249 0.0 0.0 0.00 0.00 0.00 29 1037.2
20260903022732 71 261 0.0 0.0 0.00 0.00 0.00 29 1037.1
20260903022235 71 248 0.0 0.0 0.00 0.00 0.00 28 1037.0
20260903021735 72 255 0.0 0.0 0.00 0.00 0.00 28 1036.9
20260903021235 72 251 0.0 0.0 0.00 0.00 0.00 28 1036.9
20260903020732 72 251 0.0 0.0 0.00 0.00 0.00 28 1036.8
20260903020235 72 246 0.0 0.0 0.00 0.00 0.00 28 1036.7
20260903015735 72 250 0.0 0.0 0.00 0.00 0.00 29 1036.8
20260903015232 72 255 0.0 0.0 0.00 0.00 0.00 28 1036.6
20260903014735 72 242 0.0 0.0 0.00 0.00 0.00 28 1036.6
20260903014232 73 241 0.0 0.0 0.00 0.00 0.00 28 1036.5
20260903013735 74 259 0.0 0.0 0.00 0.00 0.00 27 1036.4
20260903013232 74 258 0.0 0.0 0.00 0.00 0.00 26 1036.5
20260903012732 75 232 0.0 0.0 0.00 0.00 0.00 26 1036.3
20260903012235 75 235 0.0 0.0 0.00 0.00 0.00 26 1036.3
20260903011735 76 261 0.0 0.0 0.00 0.00 0.00 25 1036.3
20260903011235 76 252 0.0 0.0 0.00 0.00 0.00 25 1036.3
20260903010735 77 250 0.0 0.0 0.00 0.00 0.00 25 1036.2
20260903010235 78 255 0.0 0.0 0.00 0.00 0.00 24 1036.1
20260903005735 79 248 0.0 0.0 0.00 0.00 0.00 24 1036.0
20260903005235 79 248 0.0 0.0 0.00 0.00 0.00 24 1036.1
20260903004732 79 245 0.0 3.0 0.00 0.00 0.00 23 1035.9
20260903004235 79 291 0.0 4.0 0.00 0.00 0.00 23 1035.8
20260903003735 79 252 0.0 8.0 0.00 0.00 0.00 23 1035.8
20260903003235 79 246 0.0 7.0 0.00 0.00 0.00 23 1035.7
20260903002732 80 270 3.0 3.0 0.00 0.00 0.00 24 1035.7
20260903002235 81 258 0.0 1.0 0.00 0.00 0.00 23 1035.5
20260903001735 81 259 0.0 6.0 0.00 0.00 0.00 23 1035.5
20260903001235 81 266 4.0 10.0 0.00 0.00 0.00 23 1035.3
20260903000732 81 210 0.0 0.0 0.00 0.00 0.00 23 1035.4
20260903000235 81 246 0.0 8.0 0.00 0.00 0.00 22 1035.4
20260902235732 81 247 2.0 5.0 0.00 0.00 0.00 22 1035.4
20260902235235 81 333 0.0 0.0 0.00 0.00 0.00 22 1035.3
20260902234732 81 256 0.0 7.0 0.00 0.00 0.00 23 1035.3
20260902234235 81 225 0.0 4.0 0.00 0.00 0.00 23 1035.2
20260902233732 81 316 0.0 12.0 0.00 0.00 0.00 23 1035.1
20260902233232 82 276 0.0 0.0 0.00 0.00 0.00 23 1035.1
20260902232735 82 259 0.0 0.0 0.00 0.00 0.00 23 1035.1
20260902232235 81 276 0.0 2.0 0.00 0.00 0.00 24 1035.1
20260902231735 81 224 0.0 4.0 0.00 0.00 0.00 24 1035.1
20260902231232 80 279 0.0 4.0 0.00 0.00 0.00 25 1035.0
20260902230732 80 300 1.0 4.0 0.00 0.00 0.00 25 1035.0
20260902230232 81 257 0.0 5.0 0.00 0.00 0.00 24 1034.9
20260902225732 81 218 5.0 12.0 0.00 0.00 0.00 24 1034.8
20260902225235 81 258 0.0 4.0 0.00 0.00 0.00 24 1034.7
20260902224735 81 243 0.0 0.0 0.00 0.00 0.00 25 1034.7
20260902224235 80 267 0.0 8.0 0.00 0.00 0.00 25 1034.8
20260902223732 79 256 6.0 9.0 0.00 0.00 0.00 25 1034.7
20260902223232 80 236 5.0 9.0 0.00 0.00 0.00 25 1034.8
20260902222735 81 266 0.0 12.0 0.00 0.00 0.00 24 1034.7
20260902222235 82 250 9.0 10.0 0.00 0.00 0.00 24 1034.6
20260902221732 82 272 0.0 9.0 0.00 0.00 0.00 24 1034.5
20260902221235 82 286 0.0 7.0 0.00 0.00 0.00 24 1034.4
20260902220732 82 259 0.0 8.0 0.00 0.00 0.00 23 1034.4
20260902220235 82 291 0.0 6.0 0.00 0.00 0.00 23 1034.4
20260902215735 83 271 0.0 0.0 0.00 0.00 0.00 23 1034.3
20260902215235 83 194 0.0 5.0 0.00 0.00 0.00 23 1034.4
20260902214735 82 158 0.0 8.0 0.00 0.00 0.00 23 1034.3
20260902214235 82 266 0.0 6.0 0.00 0.00 0.00 24 1034.2
20260902213732 82 215 6.0 10.0 0.00 0.00 0.00 23 1034.3
20260902213232 82 219 2.0 8.0 0.00 0.00 0.00 22 1034.2
20260902212735 82 307 0.0 5.0 0.00 0.00 0.00 24 1034.1
20260902212235 81 223 0.0 10.0 0.00 0.00 0.00 23 1034.2
20260902211732 81 264 0.0 10.0 0.00 0.00 0.00 24 1034.2
20260902211235 81 233 0.0 11.0 0.00 0.00 0.00 24 1034.1
20260902210732 81 274 2.0 7.0 0.00 0.00 0.00 25 1034.1
20260902210232 80 274 0.0 8.0 0.00 0.00 0.00 24 1034.1
20260902205735 79 258 6.0 11.0 0.00 0.00 0.00 30 1034.0
20260902205235 78 94 0.0 0.0 0.00 0.00 0.00 35 1034.1
20260902204732 77 83 0.0 0.0 0.00 0.00 0.00 37 1034.2
20260902204235 77 85 0.0 0.0 0.00 0.00 0.00 35 1034.3
20260902203735 77 84 0.0 0.0 0.00 0.00 0.00 36 1034.2
20260902203232 77 58 0.0 0.0 0.00 0.00 0.00 36 1034.2
20260902202735 78 129 0.0 0.0 0.00 0.00 0.00 35 1034.2
20260902202232 79 150 0.0 0.0 0.00 0.00 0.00 32 1034.2
20260902201732 79 169 0.0 0.0 0.00 0.00 0.00 35 1034.1
20260902201235 79 148 0.0 8.0 0.00 0.00 0.00 36 1034.3
20260902200735 77 174 0.0 0.0 0.00 0.00 0.00 37 1034.2
20260902200232 76 85 0.0 0.0 0.00 0.00 0.00 38 1034.3
20260902195735 76 90 0.0 0.0 0.00 0.00 0.00 39 1034.4
20260902195232 75 198 0.0 0.0 0.00 0.00 0.00 41 1034.4
20260902194735 74 125 0.0 0.0 0.00 0.00 0.00 41 1034.3
20260902194232 75 108 0.0 0.0 0.00 0.00 0.00 40 1034.4
20260902193732 74 148 0.0 0.0 0.00 0.00 0.00 41 1034.3
20260902193232 74 159 0.0 0.0 0.00 0.00 0.00 41 1034.4
20260902192735 74 86 0.0 0.0 0.00 0.00 0.00 41 1034.5
20260902192235 74 117 0.0 0.0 0.00 0.00 0.00 42 1034.4
20260902191733 75 101 0.0 7.0 0.00 0.00 0.00 40 1034.5
20260902191232 76 77 0.0 9.0 0.00 0.00 0.00 39 1034.6
20260902190732 76 70 0.0 0.0 0.00 0.00 0.00 40 1034.6
20260902190235 75 50 0.0 0.0 0.00 0.00 0.00 41 1034.7
20260902185732 75 9 0.0 0.0 0.00 0.00 0.00 40 1034.8
20260902185235 75 139 0.0 0.0 0.00 0.00 0.00 42 1034.8
20260902184735 74 173 0.0 0.0 0.00 0.00 0.00 42 1034.8
20260902184235 75 90 0.0 6.0 0.00 0.00 0.00 40 1034.8
20260902183732 77 46 0.0 9.0 0.00 0.00 0.00 39 1034.8
20260902183232 78 151 0.0 0.0 0.00 0.00 0.00 39 1034.9
20260902182735 77 143 0.0 8.0 0.00 0.00 0.00 40 1034.9
20260902182232 78 114 7.0 8.0 0.00 0.00 0.00 39 1035.0
20260902181732 77 188 0.0 7.0 0.00 0.00 0.00 42 1034.9
20260902181232 75 184 0.0 10.0 0.00 0.00 0.00 42 1034.9
20260902180732 75 1 0.0 10.0 0.00 0.00 0.00 42 1034.9
20260902180232 75 352 0.0 0.0 0.00 0.00 0.00 42 1034.9
20260902175735 73 141 0.0 8.0 0.00 0.01 0.00 46 1035.0
20260902175232 72 82 0.0 6.0 0.00 0.01 0.00 47 1034.9
20260902174735 71 125 0.0 0.0 0.00 0.01 0.00 48 1035.0
20260902174235 71 92 0.0 7.0 0.00 0.01 0.00 49 1035.0
20260902173735 72 83 0.0 6.0 0.00 0.01 0.00 47 1035.0
20260902173235 72 74 0.0 7.0 0.00 0.01 0.00 48 1035.0
20260902172732 72 61 0.0 8.0 0.00 0.01 0.00 48 1034.9
20260902172235 72 50 0.0 8.0 0.00 0.01 0.00 48 1035.0
20260902171735 72 82 0.0 9.0 0.00 0.01 0.00 48 1035.0
20260902171235 71 68 3.0 10.0 0.00 0.01 0.00 48 1035.2
20260902170732 72 56 6.0 8.0 0.00 0.01 0.00 49 1035.1
20260902170232 71 49 0.0 9.0 0.00 0.01 0.00 51 1035.1
20260902165732 72 65 0.0 7.0 0.00 0.01 0.00 50 1035.2
20260902165232 73 87 0.0 5.0 0.00 0.01 0.00 49 1035.1
20260902164732 72 154 0.0 0.0 0.00 0.01 0.00 52 1035.1
20260902164235 72 139 0.0 0.0 0.00 0.01 0.00 53 1035.0
20260902163732 72 91 0.0 0.0 0.00 0.01 0.00 53 1035.0
20260902163235 71 61 0.0 0.0 0.00 0.01 0.00 52 1034.9
20260902162735 71 63 0.0 0.0 0.00 0.01 0.00 53 1034.9
20260902162232 71 150 0.0 0.0 0.00 0.01 0.00 54 1034.8
20260902161735 70 107 0.0 0.0 0.00 0.01 0.00 56 1034.7
20260902161235 69 103 0.0 0.0 0.00 0.01 0.00 56 1034.7
20260902160735 68 13 0.0 0.0 0.00 0.01 0.00 56 1034.8
20260902160232 68 305 0.0 0.0 0.00 0.01 0.00 57 1034.7
20260902155732 68 82 0.0 0.0 0.00 0.01 0.00 55 1034.7
20260902155232 69 101 0.0 0.0 0.00 0.01 0.00 55 1034.6
20260902154735 69 3 0.0 0.0 0.00 0.01 0.00 54 1034.6
20260902154235 70 145 0.0 0.0 0.00 0.01 0.00 54 1034.6
20260902153735 70 77 0.0 0.0 0.00 0.01 0.00 55 1034.7
20260902153232 69 38 0.0 0.0 0.00 0.01 0.00 55 1034.7
20260902152735 69 66 0.0 0.0 0.00 0.01 0.00 55 1034.6
20260902152235 68 104 0.0 0.0 0.00 0.01 0.00 55 1034.6
20260902151735 69 89 0.0 0.0 0.00 0.01 0.00 57 1034.6
20260902151235 68 79 0.0 0.0 0.00 0.01 0.00 58 1034.5
20260902150735 67 73 0.0 0.0 0.00 0.01 0.00 57 1034.5
20260902150232 67 18 0.0 0.0 0.00 0.01 0.00 57 1034.5
20260902145735 66 96 0.0 0.0 0.00 0.01 0.00 58 1034.5
20260902145235 66 23 0.0 0.0 0.00 0.01 0.00 60 1034.5
20260902144735 65 68 0.0 0.0 0.00 0.01 0.00 60 1034.5
20260902144235 65 70 0.0 0.0 0.00 0.01 0.00 60 1034.4
20260902143732 65 0 0.0 0.0 0.00 0.01 0.00 61 1034.4
20260902143235 65 5 0.0 0.0 0.00 0.01 0.00 61 1034.3
20260902142735 65 83 0.0 0.0 0.00 0.01 0.00 62 1034.3
20260902142235 64 16 0.0 0.0 0.00 0.01 0.00 62 1034.2
20260902141735 64 89 0.0 0.0 0.00 0.01 0.00 62 1034.2
20260902141235 64 71 0.0 0.0 0.00 0.01 0.00 61 1034.1
20260902140735 64 105 0.0 0.0 0.00 0.01 0.00 62 1034.2
20260902140232 63 78 0.0 0.0 0.00 0.01 0.00 62 1034.1
20260902135732 63 75 0.0 0.0 0.00 0.01 0.00 61 1034.1
20260902135235 63 86 0.0 4.0 0.00 0.01 0.00 60 1033.9
20260902134735 63 128 0.0 0.0 0.00 0.01 0.00 59 1034.0
20260902134235 63 10 0.0 0.0 0.00 0.01 0.00 59 1034.0
20260902133735 63 72 0.0 0.0 0.00 0.01 0.00 61 1033.8
20260902133235 63 356 0.0 0.0 0.00 0.01 0.00 60 1033.8
20260902132732 62 340 0.0 0.0 0.00 0.01 0.00 60 1033.8
20260902132232 62 66 0.0 0.0 0.00 0.01 0.00 63 1033.8
20260902131732 61 269 0.0 0.0 0.00 0.01 0.00 64 1033.8
20260902131235 60 270 0.0 0.0 0.00 0.01 0.00 67 1033.7